Regional Weather Roundup
Issued by NWS Charleston, SC

Current Version | Previous Version | Text Only | Print | Product List | Glossary Off
Versions: 1 2 3 4 5 6 7 8 9 10 11 12 13 14 15 16 17 18 19 20 21 22 23 24 25 26 27 28 29 30 31 32 33 34 35 36 37 38 39 40 41 42 43 44 45 46 47 48 49 50
000 ASUS42 KCHS 231628 RWRCHS REGIONAL WEATHER ROUNDUP NATIONAL WEATHER SERVICE CHARLESTON SC 1200 PM EDT SUN JUL 23 2017 NOTE: "FAIR" INDICATES FEW OR NO CLOUDS BELOW 12,000 FEET WITH NO SIGNIFICANT WEATHER AND/OR OBSTRUCTIONS TO VISIBILITY. NOT ALL STATIONS ARE QUALITY CONTROLLED. USE DATA WITH CAUTION... ESPECIALLY DEWPOINT OBSERVATIONS. SCZ027-030-031-034>040-042>050-231700- ...SOUTHEAST SOUTH CAROLINA... CITY SKY/WX TMP DP RH WIND PRES REMARKS N CHARLESTON MOSUNNY 89 76 65 SW7 29.94F HX 100 WATERFRONT PRK N/A 86 78 77 SW6 29.94F HX 98 JOHNS ISLAND FAIR 90 81 74 S8 29.95S HX 108 PINOPOLIS N/A 86 79 79 SW6 29.88F HX 99 MONCKS CORNER FAIR 88 77 70 SW7 29.93F HX 100 SUMMERVILLE FAIR 88 77 70 S3 29.95F HX 100 BEAUFORT MCAS MOSUNNY 91 79 67 W7 29.96F HX 107 BEAUFORT ARPT FAIR 88 77 70 S7 29.96S HX 100 HILTON HEAD IS MOSUNNY 88 79 74 SW9 29.97F HX 102 WALTERBORO MOSUNNY 90 77 66 W7 29.95F HX 102 ALLENDALE NOT AVBL ...SOUTHERN MIDLANDS AND PEE DEE... CITY SKY/WX TMP DP RH WIND PRES REMARKS GEORGETOWN FAIR 88 79 74 SW10 29.94F HX 102 KINGSTREE FAIR 88 75 66 SW7 29.92F HX 97 ORANGEBURG PTSUNNY 90 75 61 W12 29.94F HX 100 BARNWELL FAIR 91 77 62 SW12 29.94F HX 105 AIKEN FAIR 90 75 62 SW9 29.98S HX 100 MANNING FAIR 90 70 51 W9 29.93S HX 95 COLUMBIA MOSUNNY 92 75 57 W10 29.91F HX 103 SUMTER SUNNY 91 75 58 SW13 29.90F HX 102 FLORENCE SUNNY 90 77 65 SW12 29.91F HX 103 MYRTLE BEACH MOSUNNY 90 79 70 S15 29.93F HX 105 N MYRTLE BEACH SUNNY 87 78 74 S15 29.92F HX 100 $$ GAZ063-065-086>088-099>101-113>116-118-119-134>141-150-231700- ...SOUTHEAST GEORGIA... CITY SKY/WX TMP DP RH WIND PRES REMARKS SAVANNAH ARPT MOSUNNY 89 76 65 W6 29.97F HX 100 HUNTER AAF MOSUNNY 89 77 66 VRB6 29.95S HX 101 FORT STEWART MOSUNNY 88 73 62 SW6 29.95F HX 96 STATESBORO PTSUNNY 89 77 66 W7 29.96F HX 102 SYLVANIA MOSUNNY 89 80 74 W3 29.96F HX 105 CLAXTON FAIR 90 77 66 W7 29.97S HX 102 ...CSRA...CENTRAL AND FAR SOUTHEAST GEORGIA... CITY SKY/WX TMP DP RH WIND PRES REMARKS THOMSON MOSUNNY 91 75 60 NW8 29.99F HX 102 AUGUSTA-BUSH MOSUNNY 92 77 61 SW9 29.93F HX 105 AUGUSTA-DANIEL MOSUNNY 91 73 55 W7 29.95F HX 99 SWAINSBORO PTSUNNY 88 77 70 W5 29.97F HX 100 VIDALIA SUNNY 90 77 66 SW6 29.97F HX 102 EASTMAN PTSUNNY 90 62 38 NW5 30.00F HX 90 HAZLEHURST FAIR 89 79 72 CALM 29.98S HX 103 ALMA MOSUNNY 88 75 65 CALM 29.99S HX 97 WAYCROSS CLOUDY 91 79 67 W3 29.99S HX 107 JESUP NOT AVBL BAXLEY FAIR 88 82 84 CALM 29.99S HX 108 BRUNSWICK PTSUNNY 88 77 70 S6 30.00S HX 100 SAINT SIMONS SUNNY 89 75 63 SW10 29.99F HX 99 $$ SCZ027-028-034-036>038-045-046-048>050-GAZ119-141-231700- ...LAKE AND SUPPLEMENTAL COASTAL OBSERVATIONS... STATION/POSITION TIME TEMP WIND PRES WAVE SWELL AIR SEA DIR/SP/G HT/PER HT/PER/DIR (UTC) (F) (DEG/KT/KT) (MB) (FT/S) (FT/S/D) WINYAH BAY 1545 87 220/ 8 1013.0F LAKE MURRAY 1620 88 210/ 9/ 11 1011.9F ACE BASIN NERRS 1545 88 210/ 2 1014.0F FORT PULASKI 1600 85 86 210/ 5/ 8 1015.2 SAPELO ISLAND 1600 87 CALM 1015.0 $$ ANZ835-935-AMZ111-154-330-350-352-354-370-450-454-472-231700- ...C-MAN AND BUOY OBSERVATIONS... STATION/POSITION TIME TEMP WIND PRES WAVE SWELL AIR SEA DIR/SP/G HT/PER HT/PER/DIR (UTC) (F) (DEG/KT/KT) (MB) (FT/S) (FT/S/D) BUOY 41004 1610 82 84 230/ 14/ 16 1014.5 BUOY 41008 1550 80 81 220/ 12/ 14 1015.3S 3/10 2/130/10 FOLLY BEACH CMAN 1600 84 210/ 15/ 16 1014.9F CAPERS NEARSHORE 1608 81 84 230/ 14/ 19 1014.0F FRIPP NEARSHORE 1608 82 85 230/ 12/ 16 1014.4F STATION/POSITION TIME TEMP WIND PRES WAVE SWELL AIR SEA DIR/SP/G HT/PER HT/PER/DIR (UTC) (F) (DEG/KT/KT) (MB) (FT/S) (FT/S/D) 5E ST. MARYS GA 1600 82 N/A 2/ 9 FRYING PAN BUOY 1610 83 83 230/ 16/ 19 1014.0 BUOY 41025 1550 84 85 230/ 23/ 25 1012.2F 7/ 6 CAPE LOOKOUT NC 1600 85 230/ 12/ 15 1012.7S BUOY 41002 1550 83 84 250/ 17/ 21 1017.7R 5/ 6 2/100/ 9 BUOY 41010 1610 83 85 190/ 8/ 10 1018.3 ST AUGUSTINE FL 1600 77 76 240/ 10/ 15 1018.1R $$

USA.gov is the U.S. government's official web portal to all federal, state and local government web resources and services.